[[{"header":{"parameterUnit":"m.s-1","parameterCategory":1,"la1":30.2991,"la2":30.254,"lo1":-89.0895,"lo2":-89.0444,"dy":0.0017,"dx":0.0017,"nx":28,"ny":28,"refTime":"2023-09-05T03:00:00:Z","depth":0,"parameterNumber":2,"parameterNumberName":"U-component_of_WINDS"},"data":[0,0,0,0,0,0,0,0,0,0,0,0,0,0,0,0,0,0,0,0,0,0,0,0,0,0,0,0,0,0,0,0,0,0,0,0,0,0,0,0,0,0,0,0,0,0,0,0,0,0,0,0,0,0,0,0,0,0,-3.4915,-3.4915,0,-3.493,-3.4931,-3.4931,-3.4895,-3.4894,-3.4893,-3.4892,-3.4909,-3.4911,-3.4912,0,0,0,0,0,0,0,0,0,0,0,0,0,-3.4858,-3.4859,-3.4915,-3.4915,-3.4915,-3.493,-3.4931,-3.4931,-3.4896,-3.4894,-3.4893,-3.4891,-3.4909,-3.4911,-3.4913,0,0,0,0,0,0,0,0,0,0,0,0,0,-3.4879,-3.4859,-3.4915,-3.4899,-3.4898,-3.493,-3.4931,-3.4931,-3.4896,-3.4894,-3.4892,-3.4891,-3.4908,-3.4911,-3.4913,-3.4961,0,0,-3.492,-3.4921,0,0,0,0,0,0,0,0,-3.4878,-3.4881,-3.4901,-3.49,-3.4899,-3.4909,-3.4917,-3.4941,-3.4896,-3.4897,-3.4892,-3.489,-3.4911,-3.4913,-3.492,-3.4962,-3.4963,-3.492,-3.4921,-3.4922,-3.4923,0,0,0,0,0,0,0,-3.4876,-3.488,-3.4921,-3.4902,-3.49,-3.4893,-3.4894,-3.4921,-3.4913,-3.4897,-3.4894,-3.4896,-3.491,-3.4917,-3.492,-3.4963,-3.492,-3.4922,-3.4923,-3.4924,-3.5048,-3.5049,0,0,0,0,0,0,-3.4876,-3.4879,-3.492,-3.4921,-3.4884,-3.4895,-3.4896,-3.4908,-3.4913,-3.4912,-3.4898,-3.4895,-3.4914,-3.4917,-3.492,-3.4977,-3.4922,-3.4925,-3.4926,-3.5046,-3.5048,-3.505,0,0,0,0,0,0,-3.4875,-3.488,-3.492,-3.49,-3.4904,-3.4898,-3.4911,-3.4909,-3.4916,-3.4914,-3.4912,-3.4907,-3.4913,-3.4917,-3.4951,-3.4977,-3.4926,-3.4928,-3.5043,-3.5046,-3.5049,-3.5092,0,0,0,0,0,0,-3.4874,-3.488,-3.4897,-3.49,-3.4905,-3.495,-3.4912,-3.491,-3.492,-3.4916,-3.4922,-3.4921,-3.4912,-3.4948,-3.4954,-3.498,-3.4929,-3.5041,-3.5045,-3.5048,-3.5088,-3.5096,-3.5102,0,0,0,0,0,-3.4872,-3.4909,-3.4898,-3.4904,-3.4927,-3.4951,-3.4954,-3.4943,-3.4922,-3.494,-3.4939,-3.4921,-3.4974,-3.4952,-3.4958,-3.4985,-3.5039,-3.5044,-3.5048,-3.5085,-3.5094,-3.5102,0,0,0,0,0,0,-3.4909,-3.4909,-3.4897,-3.4936,-3.4944,-3.4945,-3.4967,-3.4953,-3.4967,-3.4963,-3.4949,-3.4951,-3.4988,-3.499,-3.4966,-3.5033,-3.5003,-3.5009,-3.5029,-3.5038,-3.5046,-3.5044,-3.4931,0,0,0,0,0,-3.4922,-3.4941,-3.494,-3.4975,-3.498,-3.4973,-3.4983,-3.4974,-3.4982,-3.4985,-3.4986,-3.4995,-3.5014,-3.5027,-3.5044,-3.5089,-3.509,-3.5111,-3.5118,-3.5124,-3.5129,-3.5154,-3.5163,-3.5064,-3.5064,-3.5064,0,0,-3.4948,-3.4951,-3.4964,-3.4983,-3.4987,-3.5009,-3.4976,-3.4999,-3.5015,-3.4989,-3.5021,-3.5023,-3.5032,-3.5073,-3.509,-3.5075,-3.5157,-3.513,-3.5134,-3.5136,-3.5159,-3.5169,-3.5177,-3.5067,-3.5066,-3.5066,0,0,-3.5007,-3.5011,-3.504,-3.5046,-3.5055,-3.505,-3.5058,-3.5062,-3.5062,-3.5094,-3.5075,-3.5095,-3.5128,-3.5135,-3.5143,-3.5209,-3.5192,-3.5215,-3.5252,-3.5276,-3.5284,-3.5291,-3.5314,-3.5323,-3.522,-3.522,-3.522,0,-3.5039,-3.5069,-3.5057,-3.5083,-3.5092,-3.507,-3.51,-3.5107,-3.5121,-3.5128,-3.5112,-3.5153,-3.5158,-3.52,-3.5216,-3.5224,-3.5232,-3.5213,-3.5284,-3.5291,-3.5297,-3.5319,-3.5328,-3.5222,-3.5222,-3.5222,-3.5222,0,-3.5108,-3.513,-3.5153,-3.5167,-3.5179,-3.5207,-3.52,-3.5214,-3.5205,-3.5203,-3.5238,-3.5243,-3.5261,-3.5271,-3.5262,-3.5313,-3.5304,-3.5286,-3.5256,-3.5309,-3.533,-3.5338,-3.5226,-3.5225,-3.5224,-3.5224,0,0,-3.5188,-3.5197,-3.5205,-3.5212,-3.522,-3.5237,-3.5266,-3.5283,-3.5296,-3.5307,-3.5331,-3.536,-3.5345,-3.5354,-3.5346,-3.5368,-3.542,-3.5348,-3.5348,-3.5361,-3.5477,-3.5489,-3.5499,-3.5411,-3.5412,-3.5413,-3.5476,0,-3.5246,-3.5292,-3.5284,-3.533,-3.535,-3.5331,-3.5355,-3.5364,-3.5364,-3.5383,-3.5383,-3.5404,-3.5382,-3.5387,-3.5408,-3.5409,-3.5443,-3.5405,-3.5433,-3.5434,-3.5429,-3.551,-3.5523,-3.5581,-3.5484,-3.5485,-3.5486,0,-3.5319,-3.5333,-3.538,-3.5387,-3.5396,-3.5418,-3.5434,-3.5452,-3.5463,-3.5461,-3.5473,-3.5462,-3.5492,-3.5463,-3.5504,-3.5478,-3.5489,-3.5492,-3.5494,-3.5495,-3.5462,-3.5512,-3.56,-3.5608,-3.5499,-3.5498,-3.5497,0,-3.5372,-3.5403,-3.5436,-3.5442,-3.5451,-3.5467,-3.5472,-3.5481,-3.5493,-3.5508,-3.5516,-3.5535,-3.5545,-3.5561,-3.5556,-3.5535,-3.5598,-3.5568,-3.5598,-3.5598,-3.561,-3.5609,-3.57,-3.562,-3.562,-3.562,-3.562,0,-3.5436,-3.5466,-3.546,-3.548,-3.5513,-3.5505,-3.5539,-3.5541,-3.555,-3.5571,-3.5557,-3.5577,-3.557,-3.5591,-3.5588,-3.5622,-3.5627,-3.5627,-3.5626,-3.5628,-3.5628,-3.5634,-3.5629,-3.5622,-3.5622,-3.5621,-3.5621,0,-3.55,-3.5497,-3.5531,-3.5538,-3.554,-3.5565,-3.5571,-3.5591,-3.5591,-3.5618,-3.5624,-3.5624,-3.5648,-3.5645,-3.5672,-3.567,-3.5713,-3.5707,-3.5709,-3.5707,-3.5737,-3.5734,-3.5833,-3.5846,-3.5759,-3.5759,-3.576,0,-3.5541,-3.5563,-3.5573,-3.5586,-3.5592,-3.5613,-3.5625,-3.5618,-3.5632,-3.5647,-3.5665,-3.5688,-3.5705,-3.5745,-3.5748,-3.5769,-3.5763,-3.5797,-3.5766,-3.5768,-3.5763,-3.5761,-3.5764,-3.5802,-3.5803,-3.5804,-3.5804,0,-3.5613,-3.5611,-3.5629,-3.5647,-3.5662,-3.5676,-3.5689,-3.5701,-3.5696,-3.5712,-3.5736,-3.575,-3.5778,-3.5801,-3.5821,-3.5827,-3.5816,-3.5815,-3.5822,-3.5824,-3.5824,-3.5824,-3.5724,-3.5812,-3.5811,-3.581,-3.581,-3.581,-3.5666,-3.5686,-3.5696,-3.5717,-3.5726,-3.5739,-3.5758,-3.5761,-3.578,-3.5802,-3.5797,-3.5825,-3.5837,-3.5863,-3.5872,-3.5894,-3.5882,-3.5893,-3.5896,-3.5899,-3.5902,-3.5822,-3.5898,-3.5898,-3.5898,-3.5898,-3.5897,0,-3.5738,-3.5744,-3.5763,-3.5782,-3.5799,-3.5787,-3.5801,-3.5816,-3.584,-3.5852,-3.587,-3.5899,-3.5922,-3.5928,-3.595,-3.5967,-3.5962,-3.5973,-3.5971,-3.5973,-3.5912,-3.5902,-3.5976,-3.5976,-3.5976,-3.5976,-3.5976,-3.5976,-3.5777,-3.5809,-3.5809,-3.5847,-3.5853,-3.5879,-3.5888,-3.5901,-3.5911,-3.5943,-3.5962,-3.5965,-3.5976,-3.5999,-3.602,-3.6022,-3.603,-3.6043,-3.6042,-3.5985,-3.5977,-3.5969,-3.596,-3.6045,-3.6046,-3.6101,-3.6102,-3.6102]},{"header":{"parameterUnit":"m.s-1","parameterCategory":1,"la1":30.2991,"la2":30.254,"lo1":-89.0895,"lo2":-89.0444,"dy":0.0017,"dx":0.0017,"nx":28,"ny":28,"refTime":"2023-09-05T03:00:00:Z","depth":0,"parameterNumber":3,"parameterNumberName":"V-component_of_WINDS"},"data":[0,0,0,0,0,0,0,0,0,0,0,0,0,0,0,0,0,0,0,0,0,0,0,0,0,0,0,0,0,0,0,0,0,0,0,0,0,0,0,0,0,0,0,0,0,0,0,0,0,0,0,0,0,0,0,0,0,0,3.2761,3.2761,0,3.2793,3.2793,3.2793,3.2836,3.2837,3.2838,3.2838,3.2868,3.2868,3.2868,0,0,0,0,0,0,0,0,0,0,0,0,0,3.2737,3.2737,3.2761,3.2762,3.2762,3.2792,3.2793,3.2793,3.2836,3.2837,3.2838,3.2839,3.2867,3.2868,3.2868,0,0,0,0,0,0,0,0,0,0,0,0,0,3.2755,3.2737,3.2761,3.2787,3.279,3.2792,3.2793,3.2793,3.2836,3.2837,3.2838,3.2839,3.2867,3.2868,3.2868,3.2847,0,0,3.2868,3.2868,0,0,0,0,0,0,0,0,3.2754,3.2756,3.2783,3.2785,3.2788,3.2812,3.2795,3.2811,3.2836,3.2818,3.2838,3.284,3.2848,3.285,3.2853,3.2848,3.2849,3.2868,3.2868,3.2868,3.2868,0,0,0,0,0,0,0,3.2753,3.2755,3.2773,3.2783,3.2786,3.2797,3.28,3.2798,3.2826,3.282,3.2823,3.2826,3.2849,3.2853,3.2854,3.285,3.2868,3.2868,3.2868,3.2868,3.2831,3.283,0,0,0,0,0,0,3.2748,3.2754,3.2772,3.2774,3.2774,3.2796,3.2801,3.2803,3.2827,3.2831,3.2825,3.2828,3.2852,3.2854,3.2855,3.2833,3.2868,3.2868,3.2869,3.2832,3.283,3.2829,0,0,0,0,0,0,3.2747,3.2749,3.2771,3.2765,3.2769,3.2795,3.2798,3.2803,3.2806,3.2831,3.2836,3.2824,3.2853,3.2855,3.2849,3.2835,3.2868,3.2869,3.2833,3.2831,3.283,3.2788,0,0,0,0,0,0,3.2747,3.2749,3.2741,3.2765,3.2769,3.2765,3.2797,3.2803,3.2807,3.2811,3.2831,3.2835,3.2854,3.2849,3.2849,3.2836,3.2869,3.2834,3.2832,3.283,3.2791,3.2785,3.2781,0,0,0,0,0,3.2746,3.2727,3.2741,3.2743,3.276,3.2764,3.2766,3.279,3.2806,3.2798,3.2814,3.2834,3.2836,3.2848,3.2849,3.2835,3.2835,3.2833,3.283,3.2793,3.2787,3.2781,0,0,0,0,0,0,3.27,3.2731,3.2746,3.2735,3.2747,3.2771,3.2762,3.2781,3.2788,3.2791,3.2819,3.2823,3.2814,3.2824,3.2836,3.2817,3.2839,3.2837,3.281,3.2804,3.2799,3.2797,3.2869,0,0,0,0,0,3.2689,3.2691,3.2717,3.2705,3.271,3.2735,3.2738,3.2755,3.2768,3.2772,3.2788,3.2799,3.2802,3.2804,3.2808,3.2793,3.2798,3.2784,3.2779,3.2774,3.2772,3.2766,3.276,3.2821,3.2821,3.2821,0,0,3.2666,3.2683,3.2682,3.2696,3.2707,3.2708,3.2739,3.2738,3.2738,3.2772,3.2768,3.278,3.2794,3.2783,3.278,3.2791,3.2757,3.2771,3.2768,3.2768,3.2763,3.2757,3.2752,3.2819,3.282,3.282,0,0,3.2624,3.2637,3.2629,3.264,3.2657,3.2674,3.2672,3.2694,3.2704,3.27,3.2726,3.2727,3.2732,3.2741,3.2747,3.271,3.2729,3.2711,3.2684,3.2678,3.2673,3.2669,3.2656,3.2652,3.2708,3.2708,3.2708,0,3.2593,3.2596,3.2622,3.262,3.2626,3.2658,3.265,3.2659,3.2676,3.2679,3.2692,3.27,3.2712,3.2705,3.2697,3.2699,3.2698,3.2709,3.2671,3.2668,3.2664,3.2653,3.2648,3.2706,3.2706,3.2707,3.2707,0,3.2557,3.2558,3.2549,3.2567,3.2572,3.2566,3.2592,3.2594,3.2611,3.2626,3.2623,3.2638,3.2647,3.2647,3.2662,3.2642,3.2649,3.2666,3.269,3.2656,3.2646,3.2641,3.2703,3.2704,3.2704,3.2705,0,0,3.2486,3.252,3.2516,3.2525,3.2547,3.2549,3.2545,3.2555,3.2556,3.2567,3.2565,3.2569,3.2586,3.2592,3.2609,3.2604,3.2576,3.2622,3.2623,3.2614,3.2555,3.2543,3.2537,3.2588,3.2588,3.2587,3.2554,0,3.2449,3.2446,3.2471,3.2461,3.2463,3.2494,3.2491,3.2504,3.2519,3.2523,3.2539,3.2542,3.2563,3.2567,3.2563,3.258,3.2564,3.2582,3.2587,3.2587,3.2583,3.2532,3.2518,3.2486,3.2551,3.255,3.2549,0,3.2405,3.2416,3.2406,3.243,3.2432,3.2429,3.2441,3.2444,3.2459,3.2471,3.2478,3.2499,3.2497,3.2519,3.2517,3.2529,3.2533,3.2541,3.254,3.2542,3.2566,3.2532,3.2477,3.2472,3.2543,3.2544,3.2544,0,3.2356,3.2368,3.2364,3.2371,3.2398,3.2395,3.2406,3.2423,3.2428,3.2438,3.2442,3.2451,3.2456,3.2462,3.2485,3.2499,3.2481,3.2504,3.249,3.2489,3.2485,3.2485,3.2429,3.2486,3.2486,3.2486,3.2486,0,3.2313,3.2306,3.2343,3.234,3.2334,3.2362,3.2355,3.2369,3.2384,3.2385,3.2412,3.2412,3.2442,3.2445,3.2463,3.2459,3.2461,3.247,3.2475,3.2468,3.2467,3.247,3.2473,3.2485,3.2485,3.2485,3.2485,0,3.2256,3.2281,3.2279,3.2306,3.2312,3.2307,3.2329,3.2328,3.2345,3.2346,3.2348,3.2375,3.238,3.2404,3.2414,3.2426,3.2417,3.2426,3.2412,3.2415,3.24,3.2401,3.2345,3.234,3.2399,3.2399,3.2398,0,3.2227,3.2223,3.225,3.2253,3.2264,3.2268,3.2274,3.2301,3.2306,3.2324,3.2321,3.2329,3.2337,3.2345,3.2365,3.2373,3.2383,3.2363,3.2385,3.2378,3.2384,3.2384,3.2384,3.2358,3.2358,3.2357,3.2356,0,3.2173,3.2186,3.2193,3.2205,3.2212,3.2222,3.2234,3.2235,3.2266,3.227,3.2277,3.2283,3.2295,3.2303,3.2315,3.2326,3.2346,3.235,3.2347,3.234,3.2332,3.2337,3.24,3.2351,3.2351,3.2352,3.2352,3.2352,3.213,3.2128,3.2148,3.2155,3.2168,3.2179,3.218,3.2197,3.2204,3.2217,3.2233,3.2238,3.2254,3.2273,3.2283,3.2287,3.2298,3.2294,3.2293,3.2292,3.2289,3.2332,3.2289,3.229,3.229,3.229,3.229,0,3.2078,3.2092,3.2099,3.2116,3.2122,3.2142,3.2157,3.2161,3.2165,3.2179,3.2187,3.2196,3.2204,3.2225,3.2235,3.2235,3.2244,3.2236,3.2237,3.2239,3.2278,3.228,3.2228,3.2228,3.2228,3.2228,3.2228,3.2229,3.2052,3.2051,3.2066,3.2071,3.2085,3.2091,3.2098,3.2108,3.212,3.2129,3.2136,3.215,3.2167,3.2179,3.2188,3.2194,3.2197,3.2186,3.2195,3.223,3.2236,3.2242,3.2244,3.2186,3.2186,3.2156,3.2156,3.2156]}]]